Location: Clyde
(45.1830°S, 169.3170°E)
Time: 10:12:50
(UTC+12:00)

Cosmos 1633 - Pass Details

Date: 24 January 2019
Orbit: 467 x 483 km, 82.5° (Epoch: 18 April)

Event Time Altitude Azimuth Distance (km) Brightness Sun altitude
Rises 23:12:42 0° 193° (SSW) 2,554 7.4 -15.8°
Reaches altitude 10° 23:14:50 10° 197° (SSW) 1,668 6.4 -16.0°
Maximum altitude 23:18:24 57° 275° (W) 573 3.0 -16.4°
Enters shadow 23:20:22 24° 346° (NNW) 1,030 3.9 -16.7°
